This demonstration page uses our WeatherBlox Daily Observations layout. Learn more.

Left ArrowRight Arrow

Hourly Observations for April 26, 2021

Temp ( °F °C ) Dew Point ( °F °C ) Humidity (%) Winds ( mph kmh ) Pressure ( in mb ) Visibility ( mi km ) Precip ( " mm )
12:15 am 00:15 Clear 64 17.6 53 11.5 68 68 SSE 16 26 29.50 999 10 16 0.00 0.00
12:35 am 00:35 Clear 64 17.5 53 11.5 68 68 SSE 17 28 29.49 999 10 16 0.00 0.00
12:55 am 00:55 Clear 62 16.9 53 11.5 71 71 SSE 18 30 29.48 998 10 16 0.00 0.00
1:15 am 01:15 Clear 62 16.6 53 11.6 73 73 SSE 17 28 29.48 998 10 16 0.00 0.00
1:35 am 01:35 Clear 62 16.7 53 11.7 73 73 SSE 18 30 29.47 998 10 16 0.00 0.00
1:55 am 01:55 Clear 62 16.7 54 12 74 74 SSE 20 31 29.45 997 10 16 0.00 0.00
2:15 am 02:15 Clear 62 16.7 54 12 74 74 SSE 20 31 29.45 997 10 16 0.00 0.00
2:35 am 02:35 Clear 62 16.4 53 11.9 75 75 SSE 17 28 29.44 997 10 16 0.00 0.00
2:55 am 02:55 Clear 61 16 54 12 77 77 SSE 15 24 29.43 997 10 16 0.00 0.00
3:15 am 03:15 Clear 60 15.8 54 12 78 78 SSE 15 24 29.42 996 10 16 0.00 0.00
3:35 am 03:35 Clear 60 15.7 54 12 79 79 S 14 22 29.41 996 10 16 0.00 0.00
3:55 am 03:55 Clear 60 15.5 54 12 80 80 S 14 22 29.42 996 10 16 0.00 0.00
4:15 am 04:15 Clear 59 15 53 11.8 81 81 S 14 22 29.41 996 10 16 0.00 0.00
4:35 am 04:35 Clear 58 14.5 53 11.7 83 83 S 15 24 29.41 996 10 16 0.00 0.00
4:55 am 04:55 Clear 58 14.5 53 11.7 83 83 S 18 30 29.40 996 10 16 0.00 0.00
5:15 am 05:15 Clear 58 14.6 53 11.5 82 82 S 18 30 29.39 995 10 16 0.00 0.00
5:35 am 05:35 Clear 58 14.5 53 11.5 82 82 SSW 14 22 29.40 996 10 16 0.00 0.00
5:55 am 05:55 Clear 57 13.7 52 11 84 84 SSW 15 24 29.41 996 10 16 0.00 0.00
6:15 am 06:15 Clear 56 13.2 51 10.4 83 83 SW 6 9 29.44 997 10 16 0.00 0.00
6:35 am 06:35 Clear 56 13.1 50 10 82 82 SW 12 19 29.44 997 10 16 0.00 0.00
6:55 am 06:55 Sunny 56 13.1 49 9.2 77 77 SSW 10 17 29.45 997 10 16 0.00 0.00
7:15 am 07:15 Sunny 55 12.5 48 9 79 79 SW 8 13 29.45 997 10 16 0.00 0.00
7:35 am 07:35 Sunny 55 12.7 47 8.5 76 76 SSW 7 11 29.46 998 10 16 0.00 0.00
7:55 am 07:55 Sunny 55 13 47 8.4 74 74 SSW 9 15 29.47 998 10 16 0.00 0.00
8:15 am 08:15 Sunny 57 13.8 47 8.1 69 69 SSW 8 13 29.46 998 10 16 0.00 0.00
8:35 am 08:35 Sunny 58 14.7 46 7.5 62 62 SSW 10 17 29.47 998 10 16 0.00 0.00
8:55 am 08:55 Sunny 59 15.1 46 7.5 61 61 SW 12 19 29.47 998 10 16 0.00 0.00
9:15 am 09:15 Sunny 60 15.7 45 7.3 58 58 SW 12 19 29.47 998 10 16 0.00 0.00
9:35 am 09:35 Sunny 62 16.4 45 7.3 55 55 SW 12 19 29.47 998 10 16 0.00 0.00
9:55 am 09:55 Sunny 64 17.6 46 7.5 52 52 SW 9 15 29.46 998 10 16 0.00 0.00
10:15 am 10:15 Sunny 66 19 46 7.7 48 48 SW 9 15 29.46 998 10 16 0.00 0.00
10:35 am 10:35 Sunny 69 20.4 45 7.4 43 43 SW 9 15 29.44 997 10 16 0.00 0.00
10:55 am 10:55 Sunny 72 22 45 7.3 39 39 W 9 15 29.43 997 10 16 0.00 0.00
11:15 am 11:15 Sunny 74 23.2 45 7 35 35 W 9 15 29.43 997 10 16 0.00 0.00
11:35 am 11:35 Sunny 75 23.8 44 6.5 33 33 W 6 9 29.43 997 10 16 0.00 0.00
11:55 am 11:55 Sunny 77 25 44 6.5 31 31 SW 3 6 29.41 996 10 16 0.00 0.00
12:15 pm 12:15 Sunny 79 26.2 44 6.4 28 28 SW 3 6 29.40 996 10 16 0.00 0.00
12:35 pm 12:35 Sunny 81 27.1 42 5.6 25 25 S 6 9 29.38 995 10 16 0.00 0.00
12:55 pm 12:55 Sunny 82 27.6 42 5.8 25 25 SW 6 9 29.37 995 10 16 0.00 0.00
1:15 pm 13:15 Sunny 83 28.2 41 4.8 22 22 SSW 7 11 29.36 994 10 16 0.00 0.00
1:35 pm 13:35 Sunny 84 28.8 40 4.3 21 21 S 7 11 29.35 994 10 16 0.00 0.00
1:55 pm 13:55 Sunny 86 29.9 38 3.2 18 18 SW 7 11 29.33 993 10 16 0.00 0.00
2:15 pm 14:15 Sunny 87 30.6 35 1.5 15 15 S 13 20 29.32 993 10 16 0.00 0.00
2:35 pm 14:35 Sunny 88 31 33 0.8 14 14 SSW 12 19 29.31 993 10 16 0.00 0.00
2:55 pm 14:55 Sunny 89 31.5 31 -0.5 13 13 S 14 22 29.31 993 10 16 0.00 0.00
3:15 pm 15:15 Sunny 90 32.1 32 0.1 13 13 SSW 13 20 29.29 992 10 16 0.00 0.00
3:35 pm 15:35 Sunny 90 32.2 29 -1.5 11 11 S 14 22 29.29 992 10 16 0.00 0.00
3:55 pm 15:55 Sunny 91 32.5 29 -1.4 11 11 S 16 26 29.28 992 10 16 0.00 0.00
4:15 pm 16:15 Sunny 91 32.5 28 -2.1 11 11 SSW 14 22 29.28 992 10 16 0.00 0.00
4:35 pm 16:35 Sunny 91 32.8 30 -0.9 11 11 WSW 10 17 29.27 991 10 16 0.00 0.00
4:55 pm 16:55 Sunny 91 32.5 30 -0.9 12 12 SSW 13 20 29.26 991 10 16 0.00 0.00
5:15 pm 17:15 Sunny 91 32.5 27 -2.6 10 10 S 7 11 29.26 991 10 16 0.00 0.00
5:35 pm 17:35 Sunny 90 32.2 30 -1.2 11 11 SSE 9 15 29.26 991 10 16 0.00 0.00
5:55 pm 17:55 Sunny 90 32.1 32 -0.1 13 13 S 15 24 29.25 991 10 16 0.00 0.00
6:15 pm 18:15 Sunny 89 31.4 32 0.2 13 13 SSE 13 20 29.26 991 10 16 0.00 0.00
6:35 pm 18:35 Sunny 88 31.1 33 0.6 14 14 SSE 9 15 29.26 991 10 16 0.00 0.00
6:55 pm 18:55 Sunny 87 30.7 32 0.1 14 14 ESE 12 19 29.27 991 10 16 0.00 0.00
7:15 pm 19:15 Sunny 85 29.7 34 1.1 16 16 SE 13 20 29.27 991 10 16 0.00 0.00
7:35 pm 19:35 Sunny 84 29 34 0.9 16 16 SSE 8 13 29.27 991 10 16 0.00 0.00
7:55 pm 19:55 Sunny 81 27.3 33 0.8 18 18 SSE 7 11 29.27 991 10 16 0.00 0.00
8:15 pm 20:15 Sunny 79 25.9 36 2.3 22 22 S 9 15 29.28 992 10 16 0.00 0.00
8:35 pm 20:35 Clear 77 25 36 2.4 23 23 S 9 15 29.29 992 10 16 0.00 0.00
8:55 pm 20:55 Clear 76 24.7 37 2.9 24 24 SSE 13 20 29.29 992 10 16 0.00 0.00
9:15 pm 21:15 Clear 77 25.1 42 5.3 28 28 S 16 26 29.31 992 10 16 0.00 0.00
9:35 pm 21:35 Clear 78 25.6 44 6.9 30 30 SSE 18 30 29.30 992 10 16 0.00 0.00
9:55 pm 21:55 Clear 76 24.5 48 8.8 37 37 SSE 18 30 29.32 993 10 16 0.00 0.00
10:15 pm 22:15 Clear 75 23.7 52 11.2 45 45 SSE 15 24 29.34 994 10 16 0.00 0.00
10:35 pm 22:35 Clear 74 23.2 54 12 49 49 S 16 26 29.34 994 10 16 0.00 0.00
10:55 pm 22:55 Clear 73 22.7 55 12.5 53 53 S 18 30 29.36 994 10 16 0.00 0.00
11:15 pm 23:15 Clear 72 22 54 12.2 54 54 S 17 28 29.36 994 10 16 0.00 0.00
11:35 pm 23:35 Clear 70 21.3 54 12.1 56 56 S 17 28 29.36 994 10 16 0.00 0.00
11:55 pm 23:55 Clear 69 20.7 54 12 58 58 S 16 26 29.36 994 10 16 0.00 0.00

Powered by AerisWeather